Погода в Тимкове

Россия / Тверская область     57°59′47″N   34°15′21″E
темп.,
°C
ветер,
м/с
пор.,
м/с
влажн.,
%
обл.,
%
осадки,
мм/ч
давл.,
гПа
погр.,
м
24 января, вс
вс2400:00+1ю3798100 0.0 1008233
03:00+1ююв3798100 0.0 1009277
06:000ю4997100 0.0 1008399
09:00+1ююв499799 0.0 1008291
12:00+1ю499898 0.0 1008390
15:00+1ююв5109899 0.0 1008440
18:000ююв51096100 0.0 1007539
21:00+2ююв51198100 0.0 1007602
25 января, пн
пн2500:00+2юв41398100 0.0 1005475
03:00+3ююв51398100 0.0 1005563
06:00+3ююв51495100 0.1 1004605
09:00+2ююв51296100 0.1 1005501
12:00+1ююв51294100 0.0 1007465
15:00+1ююв41095100 0.1 1007424
18:00+1ююв4997100 0.0 1008362
21:00+1ююв41197100 0.0 1008371
26 января, вт
вт2600:00+2юв41097100 0.2 1008392
03:00+2юв31098100 0.3 1008378
06:00+2юв41096100 0.0 1006502
09:00+2юв51295100 0.0 1005470
12:00+2вюв51296100 0.1 1004531
15:00+2юв61193100 0.1 1003749
18:00+1юв61292100 0.1 1001849
21:00+1юв51297100 0.3 1000765
27 января, ср
ср2700:000юв61291100 0.3 1000850
03:00−1ююв51190100 0.4 1000939
06:00−1ююв5108499 0.1 9981037
09:00−2юв5109399 0.3 997861
12:00−1ююв51094100 0.4 997756
15:00−1ююв51094100 1.1 998676
18:00−1юз41093100 0.3 1000571
21:00−3ююз389378 0.4 1002267
28 января, чт
чт2800:00−4ю229628 0.0 100349
03:00−4ююв229764 0.0 100448
06:00−3вюв1294100 0.0 100496
09:00−3в2594100 0.0 1003244
12:00−2всв3692100 0.0 1003324
15:00−2всв3796100 0.6 1001415
18:00−2всв4897100 0.8 1000312
21:00+2вюв4998100 0.9 998315